Regional Weather Roundup
Issued by NWS

Home | Current Version | Previous Version | Text Only | Print | Product List | Glossary On
Versions: 1 2 3 4 5 6 7 8 9 10 11 12 13 14 15 16 17 18 19 20 21 22 23 24 25 26 27
000
ASUS45 KBOU 210407
RWRCO

WEATHER ROUNDUP FOR COLORADO
NATIONAL WEATHER SERVICE DENVER/BOULDER CO
900 PM MST MON FEB 20 2017

NOTE: "FAIR" INDICATES FEW OR NO CLOUDS BELOW 12000 FEET WITH NO
SIGNIFICANT WEATHER AND/OR OBSTRUCTIONS TO VISIBILITY.

COZ001>005-013-030-031-210500-
...NORTHWEST COLORADO...

CITY           SKY/WX    TMP DP  RH WIND       PRES   REMARKS
CRAIG          FAIR      33  28  81 CALM      30.15R
HAYDEN         FAIR      37  25  60 E6        30.14S
MEEKER         FAIR      39  31  72 W6        30.17R
MOUNT WERNER   NOT AVBL
STEAMBOAT SPGS MOCLDY    33  27  78 CALM      30.15R
WALDEN         NOT AVBL
$$

COZ006>008-011-210500-
...WEST CENTRAL VALLEYS...

CITY           SKY/WX    TMP DP  RH WIND       PRES   REMARKS
GRAND JUNCTION FAIR      39  37  92 E6        30.20R
MONTROSE       FAIR      37  30  75 SE7       30.24R
EAGLE          PTCLDY    37  28  70 CALM      30.21R
RIFLE          FAIR      38  32  79 CALM      30.19R
DELTA          FAIR      48  33  55 NW8       30.23R
NUCLA          FAIR      43  30  61 S6        30.31S
$$

COZ017>023-064>068-210500-
...SOUTHWEST COLORADO...

CITY           SKY/WX    TMP DP  RH WIND       PRES   REMARKS
DURANGO        FAIR      35  28  75 N8        30.32R WCI  29
CORTEZ         FAIR      34  32  92 E6        30.32R WCI  29
PAGOSA SPRINGS FAIR      30  28  90 CALM      30.33R
TELLURIDE      MOCLDY    36  19  49 S5        30.33R
WOLF CREEK PAS CLOUDY    21  21 100 S10       30.42S FOG     WCI  10
$$

COZ009-010-012-014-032>034-037-058>063-210500-
...CENTRAL COLORADO...

CITY           SKY/WX    TMP DP  RH WIND       PRES   REMARKS
ASPEN          MOCLDY    32  24  72 CALM      30.19S
BUENA VISTA    CLOUDY    40  14  35 S6        30.22R
COPPER MTN     CLOUDY    34   5  29 SW13G26   30.31R WCI  25
BERTHOUD PASS  CLOUDY    25  14  63 W24G47    30.26S WCI   9
COTTONWOOD PAS FAIR      39   5  24 SW9       30.27R
GUNNISON       FAIR      26  22  84 CALM      30.29S
KREMMLING      FAIR      37  28  70 E8        30.19F
LEADVILLE      CLOUDY    28  12  51 E6        30.24R WCI  22
MONARCH PASS   CLOUDY    27  12  54 W24       30.44S WCI  12
SALIDA         FAIR      43  15  31 W8        30.29R
SUNLIGHT       NOT AVBL
WILKERSON PASS MOCLDY    28  10  47 SW23G35   30.25R WCI  14
$$

COZ069>075-210500-
...SAN LUIS VALLEY/SANGRE DE CRISTO MOUNTAINS...

CITY           SKY/WX    TMP DP  RH WIND       PRES   REMARKS
ALAMOSA        FAIR      29  24  82 W6        30.26R WCI  23
LA VETA PASS   FAIR      32  12  43 NE33      30.25R WCI  17
SAGUACHE       FAIR      32  19  59 NW8       30.28R WCI  25
$$

COZ035-036-038>040-210500-
...NORTHERN COLORADO FRONT RANGE...

CITY           SKY/WX    TMP DP  RH WIND       PRES   REMARKS
DENVER INTL AP FAIR      39  13  34 S9        30.01R
DMNS CITY PARK   N/A     48  13  24 SE8G14    30.00S
AURORA         PTCLDY    43  11  27 S14       30.02S
FRONT RANGE AP PTCLDY    41  16  36 S10G17    30.02F
ERIE MUNI ARPT FAIR      45  15  29 SW5       30.00F
BOULDER MUN AP FAIR      46  14  27 NW9G16    30.00R
CENTENNIAL     FAIR      47  11  23 SE10      30.03R
BROOMFIELD     PTCLDY    52  14  22 CALM      30.03S
FORT COLLINS   FAIR      47  19  33 W7        30.00S
LONGMONT       FAIR      39  17  39 W6        30.02S
$$

COZ041-046-047-076>085-087-088-210500-
...PIKES PEAK/PALMER DIVIDE AND SOUTHERN FOOTHILLS...

CITY           SKY/WX    TMP DP  RH WIND       PRES   REMARKS
COLO. SPRINGS  FAIR      43   4  19 CALM      30.12R
A. F. ACADEMY  FAIR      34   6  31 N6        30.11R WCI  29
SCHRIEVER AFB  FAIR      41   4  22 NE5       30.11S
ELLICOTT       FAIR     N/A N/A N/A SE14      30.08F
FALCON         FAIR      39   3  22 S9        30.13S
FORT CARSON    FAIR      43   6  21 NW5       30.09R
LIMON          FAIR      21  10  62 N5        30.06F WCI  15
MONUMENT HILL  FAIR      37   9  30 S13G18    30.11S
TRINIDAD       FAIR      43  10  26 W7        30.11F
$$

COZ042>045-048>051-090-091-210500-
...NORTHEAST COLORADO...

CITY           SKY/WX    TMP DP  RH WIND       PRES   REMARKS
GREELEY ARPT   NOT AVBL
AKRON          FAIR      44  14  29 S9        30.00F
BURLINGTON     FAIR      39  12  33 S12       30.05S
WRAY           NOT AVBL
STERLING       FAIR      36  19  51 CALM      29.97F
HOLYOKE        FAIR      37  16  41 S10       29.99F
FORT MORGAN    FAIR      42  14  32 S3        30.00F
$$

COZ086-089-092>099-210500-
...SOUTHEAST COLORADO...

CITY           SKY/WX    TMP DP  RH WIND       PRES   REMARKS
PUEBLO         FAIR      42   9  25 NE7       30.06R
LA JUNTA       FAIR      48  11  22 S3        30.06F
LAMAR          FAIR      35  11  36 SW3       30.04F
SPRINGFIELD      N/A     26  13  57 SW5       30.09S WCI  20
$$




USA.gov is the U.S. government's official web portal to all federal, state and local government web resources and services.